Flag for Germany Weather past 2 weeks in Senftenberg, Brandenburg, Germany

Now
42 °F

Overcast.


Feels Like: 39 °F
Forecast: 35 / 42 °F
Wind: 6 mph from Southwest

Location: Cottbus

Current Time: Dec 20, 2014 at 4:32:00 AM

Latest Report: Dec 20, 2014 at 4:00 AM


Visibility: 31 mi

Pressure: 29.97 "Hg

Humidity: 73%

Dew point: 34 °F

Location of SenftenbergLocation

Historic Weather in Senftenberg — Graph

°F

Senftenberg temperature yesterday

Maximum temperature yesterday: 55 °F (at 8:00 AM)
Minimum temperature yesterday: 44 °F (at 11:00 PM)
Average temperature yesterday: 52 °F

Past Weeks' High & Low Weather Summary

 TemperatureHumidityPressure
High55 °F (Dec 19, 8:00 AM)100% (Dec 7, 5:00 AM)30.42 "Hg (Dec 7, 5:00 AM)
Low22 °F (Dec 9, 7:00 AM)60% (Dec 15, 2:00 PM)29.47 "Hg (Dec 12, 7:00 PM)
Average40 °F87%29.96 "Hg
* Reported Dec 5 3:00 AM — Dec 20 3:00 AM, Senftenberg, Weather by CustomWeather, © 2014

Note: Actual official high and low records may vary slightly from our data, if they occured in-between our weather recording intervals... More about our weather records

Advertising

Senftenberg weather history for previous 24 hours

 ConditionsComfort  
Time TempWeatherWind HumidityBarometerVisibility
3:00 AM
Dec 20
42 °FOvercast.6 mph73%29.96 "Hg28 mi
2:00 AM42 °FPassing clouds.6 mph74%29.94 "Hg31 mi
1:00 AM43 °FClear.6 mph71%29.93 "Hg28 mi
12:00 AM43 °FPassing clouds.6 mph74%29.92 "Hg28 mi
11:00 PM
Dec 19
44 °FPassing clouds.6 mph75%29.89 "Hg31 mi
10:00 PM45 °FOvercast.6 mph79%29.88 "Hg34 mi
9:00 PM47 °FOvercast.6 mph79%29.85 "Hg43 mi
8:00 PM48 °FOvercast.6 mph85%29.81 "Hg43 mi
7:00 PM49 °FOvercast.6 mph86%29.77 "Hg43 mi
6:00 PM49 °FDrizzle. Overcast.6 mph89%29.75 "Hg43 mi
5:00 PM50 °FRain. Low clouds.9 mph94%29.74 "Hg1 mi
4:00 PM51 °FLight rain. Overcast.7 mph90%29.72 "Hg25 mi
3:00 PM52 °FLight rain. Overcast.8 mph88%29.72 "Hg19 mi
2:00 PM53 °FLight rain. Overcast.8 mph84%29.73 "Hg22 mi
1:00 PM54 °FLight rain. Low clouds.9 mph78%29.75 "Hg8 mi
12:00 PM54 °FOvercast.8 mph76%29.76 "Hg43 mi
11:00 AM54 °FLow clouds.8 mph74%29.78 "Hg43 mi
10:00 AM55 °FOvercast.9 mph72%29.78 "Hg43 mi
9:00 AM54 °FOvercast.8 mph76%29.79 "Hg43 mi
8:00 AM55 °FOvercast.8 mph74%29.79 "Hg43 mi
7:00 AM55 °FOvercast.8 mph76%29.79 "Hg43 mi
6:00 AM55 °FOvercast.8 mph79%29.78 "Hg43 mi
5:00 AM55 °FOvercast.8 mph81%29.78 "Hg43 mi
4:00 AM54 °FLow clouds.8 mph89%29.78 "Hg43 mi
Weather by CustomWeather, © 2014

See weather overviewHow to use our weather pages